TITAN 3C TRANSTAGE DEB, 26525

Orbit data source: Space-Track

TITAN 3C TRANSTAGE DEB, 26525 is space debris in HEO originally from a launch on Tue, 21 Dec 1965 UTC launched from the Air Force Eastern Test Range (AFETR). Debris objects in space refer to the collection of defunct objects orbiting the Earth. Examples of debris include non-operational satellites, rocket bodies, and fragments generated from explosions, collisions, or faulty payload assembly.

Loading next visibility...
Identifier
26525, 1965-108AL
Orbit
HEO
Last TLE update
19 hours ago
Origin
Manufacturer
Unknown
Mission
Spacecraft
Bus & Motor
Unknown
Mass
Unknown
Launch date (UTC)
1965-12-21 (60 years ago)
Launch vehicle
Unknown
Launch site
Air Force Eastern Test Range (AFETR)
Object type
Payload
Rocket body
Debris
Shape & HBR
Unknown
Radar Cross Section
Medium (>0.1 m² and <1 m²)

Expand to show TLE details & history

TLE from 19 hours ago
0 TITAN 3C TRANSTAGE DEB
1 26525U 65108AL  25181.64352392  .00000204  00000-0  27320-2 0  9993
2 26525  26.5992 319.7468 6718115 121.8563 150.2894  2.83198608261146
Epoch: 2025-06-30T15:26Z
TLE epoch observation values (Epoch: 2025-06-30T15:26:40.466Z)
Latitude
-24.18998°
Longitude
105.48936°
Altitude
28,233.091 km
Speed
2.036 km/s
True Right ascension
17h 04m 26s
True Declination
-24° 09' 49"
Sunlit
Object was in daylight at epoch
Visualization orbit readout
Latitude
-16.69001°
Longitude
132.02425°
Altitude
25,800.797 km
Speed
2.426 km/s
Apparent Right ascension
18h 19m 28s
Apparent Declination
-25° 25' 54"
Sunlit
Object is in full shadow
Visualization observer readout
Local Sidereal Time
22:12:52
Azimuth
230.514° WSW
Elevation
5.042°
Doppler factor
1
Orbital elements
Apogee altitude
28,907.875 km
Perigee altitude
548.758 km
Semi-major axis
21,106.454 km
Eccentricity
0.67181
Inclination
26.5992°
RAAN
319.7468°
Arg. of periapsis
121.8563°
True anomaly
Unknown
Mean anomaly
150.2894°
Eccentric anomaly
Unknown
Mean motion
0.70782 °/min
Orbital period
508.61 mins
BSTAR
0.002732
Loading maneuver chart data...
Loading SW <> Apogee altitude chart data...

TITAN 3C TRANSTAGE DEB Visibility forecast

Observer location: undefined°, undefined°

Span
Click to sort rows by Start time (UTC) header in descending order
Start Az.
Max El. time (UTC)
Max El. Az.
Max El.
End time (UTC)
End Az.
73 mins2025-07-01 11:57:24.390Z235.01° WSW2025-07-01 13:02:24.390Z181.916° SSW32.295°2025-07-01 13:10:24.390Z115.277° SE
|